Hourly Data Report for May 03, 2012

All times are specified in Local Standard Time (LST). Add 1 hour to adjust for Daylight Saving Time where and when it is observed.

HAMILTON A
ONTARIO

43°10'25.000" N
79°56'06.000" W
237.70 m
6153193
71263
YHM

Download Data

Hourly Data (May 2012)
Hourly Data Report for May 3, 2012
Temp Definition
°C
Dew Point Temp Definition
°C
Rel Hum Definition
%
Wind Dir Definition
10's deg

Wind Spd Definition
km/h
Visibility Definition
km
Stn Press Definition
kPa
Hmdx Definition


Wind Chill Definition


Weather Definition


TIME
00:00 Legend Double Dagger 9.9 9.3 96 26 9 10.0 98.66     LegendNANA
01:00 Legend Double Dagger 12.2 11.0 92 26 13 8.1 98.67     Fog
02:00 Legend Double Dagger 13.6 13.0 96 29 11 10.0 98.67     LegendNANA
03:00 Legend Double Dagger 12.6 12.5 99   0 1.6 98.69     Fog
04:00 Legend Double Dagger 10.4 10.4 100   0 0.8 98.74     Fog
05:00 Legend Double Dagger 11.4 11.4 100 14 8 0.2 98.75     Fog
06:00 Legend Double Dagger 10.1 10.1 100 10 5 0.2 98.90     Fog
07:00 Legend Double Dagger 11.7 11.7 100 15 8 0.0 98.96     Fog
08:00 Legend Double Dagger 14.8 14.8 100 10 9 3.2 98.98     Fog
09:00 Legend Double Dagger 18.3 15.0 81 12 12 8.1 98.95     Haze
10:00 Legend Double Dagger 20.4 15.5 73 8 9 9.7 98.98 25   Haze
11:00 Legend Double Dagger 18.4 13.8 74 5 18 9.7 98.92     Haze
12:00 Legend Double Dagger 18.9 14.2 74 6 26 10.0 98.84     LegendNANA
13:00 Legend Double Dagger 18.7 14.2 75 6 19 10.0 98.78     Mostly Cloudy
14:00 Legend Double Dagger 20.2 15.1 72 9 13 10.0 98.70     LegendNANA
15:00 Legend Double Dagger 24.4 17.8 66 14 15 10.0 98.58 30   LegendNANA
16:00 Legend Double Dagger 28.2 19.3 58 22 32 10.0 98.48 35   Mainly Clear
17:00 Legend Double Dagger 28.5 17.9 52 23 34 10.0 98.36 34   LegendNANA
18:00 Legend Double Dagger 27.4 17.2 53 22 33 10.0 98.26 33   LegendNANA
19:00 Legend Double Dagger 14.8 12.0 83 5 14 10.0 98.40     Mostly Cloudy
20:00 Legend Double Dagger 14.9 13.0 88 4 20 10.0 98.58     LegendNANA
21:00 Legend Double Dagger 15.4 13.6 89 2 13 10.0 98.64     Thunderstorms
22:00 Legend Double Dagger 15.4 14.8 96 7 10 10.0 98.58     Cloudy
23:00 Legend Double Dagger 15.4 14.9 97 18 12 10.0 98.46     Rain Showers

Notes on Data Quality.

Legend

  • E = Estimated
  • M = Missing
  • NA = Not Available
  • ‡ = Partner data that is not subject to review by the National Climate Archives
Date modified: